2020-001BP

Last updated on Thu Jan 16 2020 00:02:07 GMT+0000 (Coordinated Universal Time)

1 44975U 20001BP 20015.22817514 .00034740 11793-4 81076-4 0 9999 2 44975 52.9974 356.1838 0010671 354.6740 5.4173 15.97972438 1304

Satellite not in orbit

2020-001BP